AUA310 LOWS-LIRI

Flight info

Callsign AUA310
Flight time 1h 21m
Altitude 35000
Route DETSA DCT NIVAS DCT AGOMO DCT ANC DCT SUXUB DCT TEA DCT SOR
Aircraft A320/M-SDE3FGHIRWY/LB1

Departure

Time 2026-04-26 12:09
Airport Salzburg Airport (LOWS)

Arrival

Time 2026-04-26 13:31
Airport Salerno Costa d'Amalfi Airport (LIRI)
Time Latitude Longitude Altitude Speed Heading
2026-04-26 11:42 47.79168 12.99894 1422 ft 0 kts 282°
2026-04-26 12:03 47.79169 12.99890 1422 ft 2 kts 282°
2026-04-26 12:04 47.79194 12.99884 1422 ft 7 kts 25°
2026-04-26 12:04 47.79199 12.99976 1422 ft 12 kts 121°
2026-04-26 12:04 47.79121 13.00050 1422 ft 14 kts 155°
2026-04-26 12:04 47.79038 13.00103 1422 ft 12 kts 157°
2026-04-26 12:05 47.78967 13.00162 1422 ft 11 kts 127°
2026-04-26 12:05 47.78954 13.00280 1422 ft 12 kts 92°
2026-04-26 12:05 47.78917 13.00386 1420 ft 15 kts 148°
2026-04-26 12:05 47.78823 13.00449 1420 ft 15 kts 157°
2026-04-26 12:06 47.78718 13.00515 1420 ft 17 kts 157°
2026-04-26 12:06 47.78616 13.00578 1422 ft 15 kts 157°
2026-04-26 12:06 47.78527 13.00635 1421 ft 14 kts 156°
2026-04-26 12:06 47.78433 13.00694 1421 ft 16 kts 157°
2026-04-26 12:07 47.78333 13.00758 1421 ft 15 kts 156°
2026-04-26 12:07 47.78244 13.00819 1421 ft 13 kts 151°
2026-04-26 12:07 47.78186 13.00918 1418 ft 13 kts 106°
2026-04-26 12:07 47.78205 13.01055 1418 ft 9 kts 66°
2026-04-26 12:08 47.78252 13.01081 1417 ft 8 kts 342°
2026-04-26 12:08 47.78270 13.01068 1417 ft 0 kts 334°
2026-04-26 12:08 47.78273 13.01066 1421 ft 3 kts 334°
2026-04-26 12:09 47.78478 13.00935 1419 ft 69 kts 338°
2026-04-26 12:09 47.79128 13.00525 1419 ft 131 kts 337°
2026-04-26 12:09 47.80116 12.99902 1516 ft 170 kts 336°
2026-04-26 12:09 47.81201 12.99203 2240 ft 168 kts 337°
2026-04-26 12:10 47.82237 12.98440 3074 ft 165 kts 323°
2026-04-26 12:10 47.83016 12.97177 3648 ft 175 kts 302°
2026-04-26 12:10 47.83641 12.95529 4068 ft 191 kts 299°
2026-04-26 12:10 47.84297 12.93708 4468 ft 207 kts 299°
2026-04-26 12:11 47.85012 12.91776 4981 ft 220 kts 299°
2026-04-26 12:11 47.85780 12.89733 5601 ft 232 kts 299°
2026-04-26 12:11 47.86582 12.87581 6297 ft 243 kts 297°
2026-04-26 12:11 47.87406 12.85336 7005 ft 251 kts 297°
2026-04-26 12:12 47.88258 12.83033 7780 ft 257 kts 297°
2026-04-26 12:12 47.89132 12.80691 8645 ft 260 kts 299°
2026-04-26 12:12 47.89979 12.78295 9505 ft 263 kts 290°
2026-04-26 12:12 47.90287 12.76542 9990 ft 269 kts 278°
2026-04-26 12:13 47.90071 12.72722 10721 ft 288 kts 253°
2026-04-26 12:13 47.89150 12.70007 11293 ft 302 kts 235°
2026-04-26 12:13 47.87666 12.67686 11741 ft 319 kts 219°
2026-04-26 12:13 47.85720 12.65926 12218 ft 336 kts 205°
2026-04-26 12:14 47.83487 12.64848 12710 ft 349 kts 192°
2026-04-26 12:14 47.81042 12.64349 13254 ft 360 kts 188°
2026-04-26 12:14 47.78539 12.63795 13846 ft 366 kts 191°
2026-04-26 12:14 47.76019 12.63071 14434 ft 370 kts 193°
2026-04-26 12:15 47.73496 12.62208 15039 ft 373 kts 195°
2026-04-26 12:15 47.70969 12.61258 15682 ft 376 kts 197°
2026-04-26 12:15 47.68427 12.60264 16313 ft 379 kts 196°
2026-04-26 12:15 47.65868 12.59264 16957 ft 382 kts 195°
2026-04-26 12:16 47.63277 12.58272 17565 ft 385 kts 197°
2026-04-26 12:16 47.60666 12.57291 18177 ft 389 kts 196°
2026-04-26 12:16 47.58066 12.56328 18763 ft 392 kts 195°
2026-04-26 12:16 47.55411 12.55352 19298 ft 395 kts 195°
2026-04-26 12:17 47.52728 12.54368 19821 ft 399 kts 195°
2026-04-26 12:17 47.50025 12.53380 20340 ft 402 kts 195°
2026-04-26 12:17 47.47300 12.52384 20856 ft 406 kts 195°
2026-04-26 12:17 47.44533 12.51370 21348 ft 410 kts 195°
2026-04-26 12:18 47.41755 12.50351 21853 ft 413 kts 195°
2026-04-26 12:18 47.38958 12.49331 22344 ft 417 kts 195°
2026-04-26 12:18 47.36123 12.48298 22811 ft 420 kts 196°
2026-04-26 12:18 47.33275 12.47260 23270 ft 423 kts 196°
2026-04-26 12:19 47.30395 12.46214 23699 ft 427 kts 196°
2026-04-26 12:19 47.27501 12.45163 24069 ft 430 kts 196°
2026-04-26 12:19 47.24585 12.44101 24465 ft 433 kts 196°
2026-04-26 12:19 47.21653 12.43029 24873 ft 435 kts 196°
2026-04-26 12:20 47.18714 12.41954 25266 ft 437 kts 196°
2026-04-26 12:20 47.15760 12.40877 25636 ft 438 kts 196°
2026-04-26 12:20 47.12793 12.39801 25983 ft 440 kts 196°
2026-04-26 12:20 47.09815 12.38725 26343 ft 442 kts 196°
2026-04-26 12:21 47.06821 12.37645 26691 ft 443 kts 196°
2026-04-26 12:21 47.03863 12.36581 27031 ft 445 kts 196°
2026-04-26 12:21 47.00845 12.35499 27360 ft 447 kts 196°
2026-04-26 12:21 46.97816 12.34413 27709 ft 449 kts 196°
2026-04-26 12:22 46.94778 12.33322 28038 ft 450 kts 196°
2026-04-26 12:22 46.91730 12.32225 28341 ft 452 kts 196°
2026-04-26 12:22 46.88671 12.31121 28671 ft 453 kts 196°
2026-04-26 12:22 46.85607 12.30019 28967 ft 454 kts 196°
2026-04-26 12:23 46.82532 12.28917 29250 ft 456 kts 195°
2026-04-26 12:23 46.79390 12.28187 29536 ft 460 kts 186°
2026-04-26 12:23 46.76174 12.28089 29781 ft 464 kts 182°
2026-04-26 12:23 46.72941 12.28106 30002 ft 466 kts 182°
2026-04-26 12:24 46.70785 12.28115 30193 ft 466 kts 182°
2026-04-26 12:24 46.67542 12.28121 30499 ft 466 kts 182°
2026-04-26 12:24 46.64310 12.28122 30831 ft 465 kts 182°
2026-04-26 12:25 46.57859 12.28128 31449 ft 462 kts 182°
2026-04-26 12:25 46.54641 12.28129 31770 ft 461 kts 182°
2026-04-26 12:25 46.51442 12.28122 32077 ft 460 kts 182°
2026-04-26 12:25 46.48241 12.28118 32391 ft 459 kts 182°
2026-04-26 12:26 46.45050 12.28119 32709 ft 458 kts 182°
2026-04-26 12:26 46.41870 12.28120 32992 ft 457 kts 182°
2026-04-26 12:26 46.38697 12.28123 33300 ft 455 kts 182°
2026-04-26 12:26 46.35534 12.28125 33626 ft 454 kts 182°
2026-04-26 12:27 46.32379 12.28127 33963 ft 453 kts 182°
2026-04-26 12:27 46.29233 12.28131 34248 ft 451 kts 182°
2026-04-26 12:27 46.26102 12.28134 34531 ft 450 kts 182°
2026-04-26 12:27 46.22972 12.28134 34781 ft 449 kts 182°
2026-04-26 12:28 46.19852 12.28130 35017 ft 448 kts 182°
2026-04-26 12:28 46.16729 12.28128 35104 ft 449 kts 182°
2026-04-26 12:28 46.10479 12.28131 35117 ft 449 kts 182°
2026-04-26 12:29 46.04234 12.28140 35115 ft 449 kts 182°
2026-04-26 12:30 45.94913 12.28137 35109 ft 449 kts 182°
2026-04-26 12:30 45.88704 12.29162 35103 ft 453 kts 166°
2026-04-26 12:31 45.79886 12.34195 35098 ft 455 kts 159°
2026-04-26 12:31 45.74035 12.37684 35098 ft 455 kts 159°
2026-04-26 12:32 45.68181 12.41170 35088 ft 455 kts 159°
2026-04-26 12:33 45.59404 12.46369 35096 ft 455 kts 159°
2026-04-26 12:33 45.53552 12.49841 35098 ft 456 kts 159°
2026-04-26 12:34 45.47694 12.53307 35095 ft 456 kts 159°
2026-04-26 12:34 45.41862 12.56730 35096 ft 456 kts 159°
2026-04-26 12:35 45.35990 12.60182 35099 ft 457 kts 159°
2026-04-26 12:35 45.30113 12.63642 35105 ft 457 kts 159°
2026-04-26 12:36 45.24229 12.67082 35109 ft 457 kts 159°
2026-04-26 12:36 45.18340 12.70517 35113 ft 458 kts 159°
2026-04-26 12:37 45.12446 12.73940 35119 ft 458 kts 159°
2026-04-26 12:37 45.06554 12.77359 35124 ft 458 kts 159°
2026-04-26 12:38 45.00657 12.80754 35115 ft 458 kts 161°
2026-04-26 12:38 44.94659 12.83760 35112 ft 457 kts 163°
2026-04-26 12:39 44.88607 12.86519 35109 ft 457 kts 164°
2026-04-26 12:39 44.82559 12.89312 35107 ft 457 kts 163°
2026-04-26 12:40 44.76534 12.92181 35113 ft 458 kts 163°
2026-04-26 12:40 44.70503 12.95074 35112 ft 458 kts 163°
2026-04-26 12:41 44.64466 12.97949 35122 ft 458 kts 163°
2026-04-26 12:41 44.58418 13.00801 35115 ft 459 kts 163°
2026-04-26 12:42 44.52364 13.03659 35113 ft 459 kts 163°
2026-04-26 12:42 44.46351 13.06490 35119 ft 459 kts 163°
2026-04-26 12:43 44.40286 13.09341 35120 ft 459 kts 163°
2026-04-26 12:43 44.34222 13.12184 35119 ft 459 kts 163°
2026-04-26 12:44 44.28167 13.15024 35119 ft 459 kts 163°
2026-04-26 12:44 44.22111 13.17848 35111 ft 459 kts 163°
2026-04-26 12:45 44.16051 13.20664 35112 ft 459 kts 163°
2026-04-26 12:45 44.09982 13.23484 35114 ft 460 kts 163°
2026-04-26 12:46 44.03909 13.26299 35117 ft 460 kts 163°
2026-04-26 12:46 43.97878 13.29097 35121 ft 460 kts 163°
2026-04-26 12:47 43.91809 13.31897 35119 ft 460 kts 163°
2026-04-26 12:47 43.85738 13.34694 35114 ft 459 kts 163°
2026-04-26 12:48 43.79667 13.37489 35101 ft 459 kts 163°
2026-04-26 12:48 43.73593 13.40277 35099 ft 460 kts 163°
2026-04-26 12:49 43.67514 13.43063 35100 ft 460 kts 163°
2026-04-26 12:49 43.61440 13.45835 35091 ft 460 kts 163°
2026-04-26 12:50 43.55338 13.48496 35109 ft 460 kts 166°
2026-04-26 12:50 43.49162 13.50744 35118 ft 459 kts 168°
2026-04-26 12:51 43.42951 13.52872 35117 ft 460 kts 167°
2026-04-26 12:51 43.36756 13.55077 35109 ft 460 kts 167°
2026-04-26 12:52 43.30561 13.57343 35116 ft 460 kts 167°
2026-04-26 12:52 43.24413 13.59605 35120 ft 460 kts 167°
2026-04-26 12:53 43.18220 13.61865 35114 ft 460 kts 167°
2026-04-26 12:53 43.12028 13.64106 35126 ft 460 kts 167°
2026-04-26 12:54 43.05834 13.66341 35126 ft 460 kts 167°
2026-04-26 12:54 42.99643 13.68561 35117 ft 460 kts 167°
2026-04-26 12:55 42.93472 13.70775 35128 ft 459 kts 167°
2026-04-26 12:55 42.87279 13.73004 35124 ft 459 kts 167°
2026-04-26 12:56 42.81103 13.75216 35127 ft 459 kts 167°
2026-04-26 12:56 42.74927 13.77421 35127 ft 459 kts 167°
2026-04-26 12:57 42.68744 13.79629 35123 ft 459 kts 167°
2026-04-26 12:57 42.62563 13.81832 35123 ft 459 kts 167°
2026-04-26 12:58 42.53301 13.85126 35124 ft 459 kts 167°
2026-04-26 12:58 42.47116 13.87317 35124 ft 459 kts 167°
2026-04-26 12:59 42.40978 13.89486 35124 ft 459 kts 167°
2026-04-26 12:59 42.34797 13.91672 35115 ft 459 kts 167°
2026-04-26 13:00 42.28602 13.93852 35125 ft 459 kts 167°
2026-04-26 13:00 42.22406 13.96024 35127 ft 460 kts 167°
2026-04-26 13:01 42.16212 13.98195 35136 ft 460 kts 167°
2026-04-26 13:01 42.10014 14.00362 35134 ft 460 kts 167°
2026-04-26 13:02 42.03814 14.02524 35138 ft 460 kts 167°
2026-04-26 13:02 41.97614 14.04681 35140 ft 460 kts 167°
2026-04-26 13:03 41.91450 14.06801 35143 ft 459 kts 170°
2026-04-26 13:03 41.85134 14.07358 35136 ft 454 kts 187°
2026-04-26 13:04 41.78901 14.06219 34405 ft 452 kts 190°
2026-04-26 13:04 41.75775 14.05632 33530 ft 454 kts 189°
2026-04-26 13:04 41.72641 14.05046 32617 ft 456 kts 189°
2026-04-26 13:05 41.69491 14.04460 31714 ft 458 kts 189°
2026-04-26 13:05 41.66329 14.03871 30801 ft 460 kts 189°
2026-04-26 13:05 41.63149 14.03279 29818 ft 462 kts 189°
2026-04-26 13:05 41.59970 14.02687 29020 ft 459 kts 189°
2026-04-26 13:06 41.56821 14.02103 28303 ft 454 kts 189°
2026-04-26 13:06 41.53705 14.01526 27582 ft 450 kts 189°
2026-04-26 13:06 41.50618 14.00951 26932 ft 446 kts 189°
2026-04-26 13:06 41.47562 14.00380 26291 ft 442 kts 189°
2026-04-26 13:07 41.44529 13.99817 25656 ft 438 kts 189°
2026-04-26 13:07 41.41528 13.99261 25051 ft 434 kts 189°
2026-04-26 13:07 41.38540 13.98708 24455 ft 431 kts 190°
2026-04-26 13:07 41.35582 13.98160 23872 ft 428 kts 190°
2026-04-26 13:08 41.32637 13.97677 23223 ft 426 kts 185°
2026-04-26 13:08 41.29724 13.97777 22662 ft 424 kts 175°
2026-04-26 13:08 41.26844 13.98574 22098 ft 422 kts 164°
2026-04-26 13:08 41.24100 13.99930 21537 ft 420 kts 160°
2026-04-26 13:09 41.21392 14.01333 20991 ft 417 kts 161°
2026-04-26 13:09 41.18693 14.02727 20478 ft 413 kts 161°
2026-04-26 13:09 41.16022 14.04105 19968 ft 410 kts 161°
2026-04-26 13:09 41.13375 14.05467 19472 ft 407 kts 161°
2026-04-26 13:10 41.10736 14.06821 19008 ft 404 kts 161°
2026-04-26 13:10 41.08131 14.08152 18555 ft 400 kts 161°
2026-04-26 13:10 41.05542 14.09471 18036 ft 397 kts 161°
2026-04-26 13:10 41.02976 14.10780 17516 ft 393 kts 161°
2026-04-26 13:11 41.01292 14.11642 17178 ft 391 kts 161°
2026-04-26 13:11 41.00182 14.12210 16964 ft 389 kts 161°
2026-04-26 13:11 40.97668 14.13494 16460 ft 386 kts 161°
2026-04-26 13:11 40.95168 14.14765 15980 ft 383 kts 160°
2026-04-26 13:12 40.92694 14.16024 15498 ft 379 kts 160°
2026-04-26 13:12 40.90238 14.17275 15028 ft 376 kts 160°
2026-04-26 13:12 40.87805 14.18514 14569 ft 373 kts 160°
2026-04-26 13:12 40.85393 14.19743 14118 ft 370 kts 160°
2026-04-26 13:13 40.82996 14.20966 13625 ft 368 kts 160°
2026-04-26 13:13 40.80617 14.22177 13099 ft 365 kts 160°
2026-04-26 13:13 40.78254 14.23376 12539 ft 363 kts 160°
2026-04-26 13:13 40.75916 14.24562 12212 ft 355 kts 160°
2026-04-26 13:14 40.73658 14.25707 12083 ft 341 kts 160°
2026-04-26 13:14 40.71490 14.26808 11954 ft 328 kts 160°
2026-04-26 13:14 40.69396 14.27872 11801 ft 318 kts 160°
2026-04-26 13:14 40.67338 14.28913 11502 ft 314 kts 160°
2026-04-26 13:15 40.65306 14.29936 11208 ft 310 kts 160°
2026-04-26 13:15 40.63309 14.30943 10920 ft 306 kts 160°
2026-04-26 13:15 40.61334 14.31938 10595 ft 303 kts 160°
2026-04-26 13:15 40.59349 14.32868 10189 ft 303 kts 166°
2026-04-26 13:16 40.57269 14.33207 9762 ft 302 kts 182°
2026-04-26 13:16 40.55210 14.32896 9321 ft 301 kts 190°
2026-04-26 13:16 40.53143 14.32472 8884 ft 300 kts 189°
2026-04-26 13:16 40.51082 14.32052 8453 ft 299 kts 189°
2026-04-26 13:17 40.46984 14.31406 7641 ft 295 kts 176°
2026-04-26 13:17 40.45000 14.31981 7298 ft 291 kts 158°
2026-04-26 13:18 40.41808 14.34963 6810 ft 275 kts 140°
2026-04-26 13:18 40.40363 14.36564 6570 ft 268 kts 140°
2026-04-26 13:18 40.37578 14.39632 6063 ft 257 kts 140°
2026-04-26 13:19 40.36218 14.41135 5821 ft 255 kts 140°
2026-04-26 13:19 40.34965 14.42759 5564 ft 252 kts 123°
2026-04-26 13:19 40.34318 14.44834 5312 ft 244 kts 97°
2026-04-26 13:19 40.34389 14.46990 5065 ft 240 kts 73°
2026-04-26 13:20 40.35127 14.48916 4820 ft 237 kts 50°
2026-04-26 13:20 40.36192 14.50567 4567 ft 237 kts 49°
2026-04-26 13:20 40.37273 14.52237 4314 ft 244 kts 49°
2026-04-26 13:20 40.38373 14.53940 4085 ft 244 kts 48°
2026-04-26 13:21 40.39468 14.55639 3998 ft 243 kts 48°
2026-04-26 13:21 40.40205 14.56784 4009 ft 243 kts 48°
2026-04-26 13:21 40.41654 14.59033 4001 ft 244 kts 49°
2026-04-26 13:21 40.42749 14.60732 4002 ft 244 kts 49°
2026-04-26 13:22 40.43838 14.62448 3891 ft 244 kts 49°
2026-04-26 13:22 40.44911 14.64168 3764 ft 243 kts 49°
2026-04-26 13:22 40.45976 14.65885 3638 ft 242 kts 49°
2026-04-26 13:22 40.47039 14.67598 3516 ft 241 kts 50°
2026-04-26 13:23 40.48099 14.69305 3393 ft 241 kts 49°
2026-04-26 13:23 40.49159 14.71011 3211 ft 241 kts 49°
2026-04-26 13:23 40.50199 14.72684 2988 ft 238 kts 50°
2026-04-26 13:23 40.51231 14.74346 2760 ft 231 kts 50°
2026-04-26 13:24 40.52240 14.75970 2505 ft 228 kts 49°
2026-04-26 13:24 40.53244 14.77576 2214 ft 227 kts 49°
2026-04-26 13:24 40.54256 14.79177 1970 ft 227 kts 47°
2026-04-26 13:24 40.55271 14.80766 1892 ft 227 kts 48°
2026-04-26 13:25 40.56267 14.82303 1810 ft 214 kts 46°
2026-04-26 13:25 40.57262 14.83688 1758 ft 204 kts 49°
2026-04-26 13:25 40.57997 14.85250 1684 ft 201 kts 66°
2026-04-26 13:25 40.58314 14.87030 1758 ft 201 kts 85°
2026-04-26 13:26 40.58245 14.88877 1875 ft 202 kts 95°
2026-04-26 13:26 40.58100 14.90648 1805 ft 189 kts 95°
2026-04-26 13:26 40.57935 14.92329 1757 ft 185 kts 98°
2026-04-26 13:26 40.57742 14.93963 1717 ft 174 kts 98°
2026-04-26 13:27 40.57773 14.95525 1628 ft 171 kts 76°
2026-04-26 13:27 40.58230 14.96947 1589 ft 170 kts 57°
2026-04-26 13:27 40.58906 14.98227 1580 ft 170 kts 54°
2026-04-26 13:27 40.59603 14.99489 1580 ft 171 kts 52°
2026-04-26 13:28 40.60496 15.00473 1521 ft 170 kts 17°
2026-04-26 13:28 40.61637 15.00422 1431 ft 168 kts 332°
2026-04-26 13:28 40.62562 14.99523 1271 ft 163 kts 314°
2026-04-26 13:28 40.63348 14.98575 1160 ft 148 kts 310°
2026-04-26 13:29 40.63983 14.97546 1110 ft 143 kts 291°
2026-04-26 13:29 40.64183 14.96719 1084 ft 138 kts 275°
2026-04-26 13:29 40.64030 14.95118 956 ft 133 kts 247°
2026-04-26 13:29 40.63619 14.94040 730 ft 131 kts 236°
2026-04-26 13:30 40.63068 14.93078 504 ft 131 kts 232°
2026-04-26 13:30 40.62515 14.92130 305 ft 130 kts 232°
2026-04-26 13:30 40.61970 14.91208 118 ft 119 kts 232°
2026-04-26 13:30 40.61552 14.90503 93 ft 73 kts 232°
2026-04-26 13:31 40.61431 14.90307 87 ft 6 kts 206°
2026-04-26 13:31 40.61424 14.90282 90 ft 7 kts 345°
2026-04-26 13:31 40.61478 14.90356 92 ft 18 kts 54°
2026-04-26 13:31 40.61578 14.90539 93 ft 27 kts 54°
2026-04-26 13:32 40.61688 14.90731 101 ft 25 kts 53°
2026-04-26 13:32 40.61791 14.90907 109 ft 23 kts 51°
2026-04-26 13:32 40.61895 14.91088 113 ft 27 kts 54°
2026-04-26 13:32 40.62019 14.91293 118 ft 30 kts 52°
2026-04-26 13:33 40.62144 14.91504 123 ft 29 kts 52°
2026-04-26 13:33 40.62267 14.91707 135 ft 24 kts 51°
2026-04-26 13:33 40.62294 14.91782 138 ft 8 kts 91°
2026-04-26 13:33 40.62251 14.91845 137 ft 13 kts 141°
2026-04-26 13:34 40.62186 14.91933 137 ft 12 kts 109°
2026-04-26 13:34 40.62148 14.92019 137 ft 10 kts 108°
2026-04-26 13:34 40.62143 14.92074 137 ft 0 kts 96°